Current Version              Previous Version:    01  02  03  04  05  06  07  08  09  10  11  12  13  14  15  16  17  18  19  20  21  22  23  24  25  26  27  28  29  30  
   31  32  33  34  35  36  37  38  39  40  41  42  43  44  45  46  47  48  49  50  51  52  53  54  55  56  57  58  59  60  

[Printable]
820
ASUS44 KLUB 300301
RWRTX
WEST TEXAS WEATHER ROUNDUP
NATIONAL WEATHER SERVICE LUBBOCK TX
1000 PM CDT TUE JUL 29 2014

NOTE: "FAIR" INDICATES FEW OR NO CLOUDS BELOW 12,000 FEET WITH NO
SIGNIFICANT WEATHER AND/OR OBSTRUCTIONS TO VISIBILITY.

TXZ004-006>008-010-012-014-016-OKZ002-300400-
TEXAS PANHANDLE/OKLAHOMA PANHANDLE

CITY           SKY/WX    TMP DP  RH WIND       PRES   REMARKS
AMARILLO       CLOUDY    70  61  73 SE13      30.15R
BORGER         CLOUDY    72  62  71 SE13G21   30.13R
CANADIAN       DRIZZLE   71  64  78 CALM      30.11R
DALHART        MOCLDY    72  63  73 SE13      30.15R
DUMAS          MOCLDY    71  63  76 SE8       30.14R
GUYMON         CLOUDY    72  65  78 S13G21    30.09R
HEREFORD       CLOUDY    73  67  81 SE10      30.16S
PAMPA          MOCLDY    68  62  80 SE14      30.16R
PERRYTON       PTCLDY    68  63  83 SE9       30.12R
$$

TXZ026-029-035-045-048-300400-
SOUTHERN PANHANDLE/SOUTH PLAINS/ROLLING PLAINS

CITY           SKY/WX    TMP DP  RH WIND       PRES   REMARKS
CHILDRESS      CLOUDY    73  66  78 SE8       30.09R
SEMINOLE       PTCLDY    80  61  52 E15G22    30.11R
LUBBOCK        MOCLDY    75  63  66 SE13      30.12R
PLAINVIEW      CLOUDY    75  62  64 SE8       30.12S
SNYDER         LGT RAIN  73  69  88 E10       30.11S
$$

TXZ052-054-060>062-072-078-127-140-154-169-300400-
PERMIAN BASIN/CONCHO VALLEY/BIG COUNTRY/EDWARDS PLATEAU

CITY           SKY/WX    TMP DP  RH WIND       PRES   REMARKS
ABILENE        CLOUDY    75  66  73 S18       30.08S
BIG SPRING     MOCLDY    79  65  62 E20G28    30.10R
BRADY          CLEAR     79  66  65 E8        30.09R
BROWNWOOD      CLOUDY    82  57  42 E7        30.08R
JUNCTION       PTCLDY    84  68  58 E12       30.06R
MIDLAND        PTCLDY    82  65  56 E17       30.07R
ODESSA           N/A     85  61  44 E10       30.07R
SAN ANGELO     MOCLDY    84  67  56 E12G21    30.06R
SONORA         CLEAR     90  50  25 SE7       30.10R
SWEETWATER     CLOUDY    73  70  88 SE9       30.12S
WINK           PTCLDY    91  48  22 SE13      30.01R
$$

TXZ055-058-074-075-080-082-300400-
FAR WEST/SOUTHWEST MOUNTAINS/TRANS PECOS

CITY           SKY/WX    TMP DP  RH WIND       PRES   REMARKS
ALPINE         PTCLDY    82  53  37 SE13G18   30.20R
DRYDEN           N/A     92  49  22 E10       30.03R
EL PASO        MOCLDY    82  63  51 CALM        N/A
FORT STOCKTON  CLEAR     87  48  25 SE16G23   30.07R
GUADALUPE PASS MOCLDY    76  56  49 NE15      30.24R
MARFA          PTCLDY    77  48  36 SE9       30.19R
PRESIDIO       FAIR      92  44  18 E3        29.99R
$$

TXZ014-016-019-021>030-083-300400
TEXAS TECH WEST TEXAS MESONET/TEXAS PANHANDLE/NORTHERN SOUTH PLAINS

CITY           SKY/WX    TMP DP  RH WIND       PRES   REMARKS
ABERNATHY 5ENE   N/A     76  61  59 SE12      30.14R
AMARILLO 9NNE    N/A     72  62  71 SE13      30.12R
AMARILLO 7SSE    N/A     71  61  71 SE12      30.15S
AMHERST 1NE      N/A     73  63  72 SE5       30.14F
BOOTLEG 11WNW    N/A     69  64  83 SE10      30.19R
CANADIAN 6E      N/A     69  62  77 SE7       30.10R
CAPROCK CYN SP   N/A     74  60  61 SE6       30.12R
CHILDRESS 2NNE   N/A     72  66  82 SE7       30.08R
CLARENDON 2WSW   N/A     71  63  74 SE10      30.12S
DIMMITT 2NE      N/A     70  64  81 SE5       30.16S
FLOYDADA 2NNE    N/A     74  61  62 SE9       30.13S
FRIONA 2NE       N/A     71  62  73 SE10      30.16S
GOODLETT 3W      N/A     73  65  75 E8        30.05F
HART 3N          N/A     71  63  74 SE6       30.15S
HEREFORD 2NW     N/A     71  62  73 SE7       30.15F
MCLEAN 1E        N/A     68  63  85 SE8       30.12S
MEMPHIS 1NE      N/A     73  65  75 E5        30.09S
MULESHOE 2SSW    N/A     70  64  79 E8        30.14S
OLTON 6S         N/A     72  63  72 E5        30.14S
PALO DURO SP     N/A     73  61  66 SE8       30.16R
PAMPA 2E         N/A     68  63  85 SE13      30.14S
PLAINVIEW 1S     N/A     76  63  64 SE6       30.13S
SILVERTON 7ESE   N/A     73  59  61 E10       30.13S
TULIA 2ENE       N/A     74  63  69 SE6       30.15R
TURKEY 2WSW      N/A     76  61  59 E8        30.10R
UMBARGER 3NNE    N/A     70  63  78 SE8       30.16S
$$

TXZ033>036-039>041-045>048-300400
TEXAS TECH WEST TEXAS MESONET/SOUTH PLAINS

CITY           SKY/WX    TMP DP  RH WIND       PRES   REMARKS
AIKEN 3WSW       N/A     74  62  66 SE7       30.14S
ANDREWS 2NE      N/A     79  61  53 E13       30.09R
ANTON 6SSW       N/A     72  67  83 NE6       30.12S
BROWNFIELD 2S    N/A     77  60  55 E12       30.11R
DENVR CTY 7WNW   N/A     78  59  52 E10       30.12R
GAIL 2ESE        N/A     74  66  76 E9        30.09R
LAMESA 2SE       N/A     75  64  67 E14       30.11R
LEVELLAND 4S     N/A     72  66  80 NE6       30.13S
LUBBOCK 3WNW     N/A     76  60  57 E9        30.12R
MORTON 1ENE      N/A     71  67  85 E6        30.14F
ODONNELL 1N      N/A     76  61  59 E17       30.11R
PLAINS 3N        N/A     73  67  80 NE8       30.13S
RALLS 1SE        N/A     75  61  62 SE14      30.13R
REESE CENTER     N/A     75  62  62 E13       30.12S
SEAGRAVES 1SW    N/A     81  60  49 E8        30.11R
SEMINOLE 2NNE    N/A     80  59  48 E18       30.10R
SLATON 2NE       N/A     75  61  63 E13       30.12R
SNYDER 3E        N/A     72  68  87 E5        30.11R
SUNDOWN 8SW      N/A     73  66  77 NE6       30.13S
TAHOKA 3NNE      N/A     77  60  56 E14       30.10S
WOLFFORTH 6SSW   N/A     76  62  60 E13       30.12S
$$

TXZ031-032-036>038-042>044-300400-
TEXAS TECH WEST TEXAS MESONET/ROLLING PLAINS

CITY           SKY/WX    TMP DP  RH WIND       PRES   REMARKS
ASPERMONT 3NE    N/A     76  70  82 SE5       30.07S
FLUVANNA 3WNW    N/A     74  65  74 E15       30.10S
GRAHAM 5SSW      N/A     76  64  67 E16       30.10S
GUTHRIE 10WSW    N/A     78  65  63 SE7       30.07S
HASKELL 1NW      N/A     82  55  38 SE9       30.06S
JAYTON 1SSE      N/A     77  67  73 SE12      30.08R
KNOX CITY 3NW    N/A     84  55  36 E10       30.07R
LK A HENRY 1NW   N/A     75  67  74 SE9       30.09R
NORTHFIELD 1S    N/A     77  62  59 SE9       30.08R
ODELL 4ENE       N/A     74  66  74 SE7       30.08R
PADUCAH 10SW     N/A     76  63  62 SE12      30.07R
POST 1NE         N/A     76  64  66 E12       30.10S
RRING SPRGS 3N   N/A     77  63  61 SE9       30.10R
SEYMOUR 3NW      N/A     81  60  48 SE7       30.06S
SPUR 1W          N/A     77  63  60 SE8       30.08S
WEINERT 2NNE     N/A     83  58  43 SE9       30.07S
WHITE RVR 6NE    N/A     76  63  63 SE12      30.10S
$$

TXZ052-054-060>062-072-078-127-140-154-169-300400-
TEXAS TECH WEST TEXAS MESONET/PERMIAN BASIN/
CONCHO VALLEY/BIG COUNTRY/EDWARDS PLATEAU

CITY           SKY/WX    TMP DP  RH WIND       PRES   REMARKS
COYANOSA 2N      N/A     90  49  24 E12       30.02R
JUNCTION 1SSW    N/A     85  68  57 NE7       30.06R
MERTZON 3NNE     N/A     86  66  52 E18       30.07R
SAN ANGELO 7NW   N/A     83  64  51 E20       30.07R
STRLNG CT 4WSW   N/A     78  66  68 E12       30.09R
ST LAWRNCE 5SW   N/A     80  62  53 E18       30.08R
SWEETWATR 11SW   N/A     73  68  86 SE14      30.10R
WALL 1E          N/A     82  65  56 E17       30.07R
$$

TXZ055-058-074-075-080-082-300400-
TEXAS TECH WEST TEXAS MESONET/FAR WEST/SOUTHWEST MOUNTAINS/TRANS PECOS

CITY           SKY/WX    TMP DP  RH WIND       PRES   REMARKS
PRSMN GAP BBNP   N/A     90  51  26 NE14      30.02R
GUADLPE MTN NP   N/A     76  55  47 NW1       30.25R
$$